This is the latest recevied weather packets stored in our database for station/object KJ4EBE. If no packets are shown the sender has not sent any weather packets the latest 10 day(s).
| Time | Temp. | Humidity | Pressure | Rain* | Wind** | Luminosity | Snow |
|---|---|---|---|---|---|---|---|
| 1777844034 | 27.22° C | 34% | 1017.4 hPa | 0 mm | - | 509 W/m² | - |
| 1777843730 | 26.67° C | 38% | 1017.6 hPa | 0 mm | - | 551 W/m² | - |
| 1777843428 | 26.67° C | 35% | 1017.6 hPa | 0 mm | - | 536 W/m² | - |
| 1777843125 | 26.67° C | 37% | 1017.9 hPa | 0 mm | - | 411 W/m² | - |
| 1777842822 | 27.22° C | 35% | 1017.9 hPa | 0 mm | - | 575 W/m² | - |
| 1777842517 | 26.67° C | 35% | 1018 hPa | 0 mm | - | 507 W/m² | - |
| 1777842214 | 27.22° C | 35% | 1018.3 hPa | 0 mm | - | 593 W/m² | - |
| 1777841909 | 26.67° C | 34% | 1018 hPa | 0 mm | - | 626 W/m² | - |
| 1777841606 | 26.67° C | 37% | 1018.3 hPa | 0 mm | - | 633 W/m² | - |
| 1777841303 | 27.22° C | 35% | 1018.6 hPa | 0 mm | - | 388 W/m² | - |
| 1777841000 | 27.22° C | 37% | 1018.5 hPa | 0 mm | - | 635 W/m² | - |
| 1777840697 | 27.22° C | 35% | 1018.5 hPa | 0 mm | - | 638 W/m² | - |
| 1777840395 | 26.67° C | 37% | 1018.6 hPa | 0 mm | - | 647 W/m² | - |
| 1777840091 | 27.22° C | 36% | 1018.6 hPa | 0 mm | - | 670 W/m² | - |
| 1777839790 | 27.22° C | 36% | 1018.8 hPa | 0 mm | - | 601 W/m² | - |
| 1777839487 | 26.67° C | 36% | 1019 hPa | 0 mm | - | 739 W/m² | - |
| 1777839184 | 26.11° C | 38% | 1019 hPa | 0 mm | - | 494 W/m² | - |
| 1777838882 | 27.22° C | 37% | 1019 hPa | 0 mm | - | 686 W/m² | - |
| 1777838577 | 26.67° C | 35% | 1019.1 hPa | 0 mm | - | 505 W/m² | - |
| 1777838275 | 26.67° C | 36% | 1019.1 hPa | 0 mm | - | 725 W/m² | - |
| 1777837971 | 27.22° C | 36% | 1019.2 hPa | 0 mm | - | 725 W/m² | - |
| 1777837669 | 26.67° C | 34% | 1019.5 hPa | 0 mm | - | 726 W/m² | - |
| 1777837365 | 26.67° C | 36% | 1019.4 hPa | 0 mm | - | 733 W/m² | - |
| 1777837061 | 27.22° C | 37% | 1019.6 hPa | 0 mm | - | 744 W/m² | - |
| 1777836757 | 26.67° C | 34% | 1019.6 hPa | 0 mm | - | 700 W/m² | - |
* Rain latest hour (hover to see other rain measurements)
** Current wind speed in m/s (hover to see current wind gust speed)